Regional Weather Roundup
Issued by NWS Goodland, KS

Home | Current Version | Previous Version | Text Only | Print | Product List | Glossary Off
Versions: 1 2 3 4 5 6 7 8 9 10 11 12 13 14 15 16 17 18 19 20 21 22 23 24 25 26 27 28 29 30 31 32 33 34 35 36 37 38 39 40 41 42 43 44 45 46 47 48 49 50

939
ASUS43 KGLD 151059
RWRGLD

GOODLAND FORECAST AREA HOURLY WEATHER ROUNDUP
NATIONAL WEATHER SERVICE GOODLAND KS
400 AM MST FRI DEC 15 2017

...OFFICIAL OBSERVATIONS...

CITY           SKY/WX    TMP DP  RH WIND       PRES   REMARKS
GOODLAND KS    CLOUDY    18  13  80 W10       30.12F WCI   6
HILL CITY KS   CLEAR     20  17  88 W6        30.18F
IMPERIAL NEB   CLOUDY    18  14  84 W12       30.10F WCI   5
MCCOOK NEB     CLOUDY    16  14  92 W8        30.13F
AKRON CO       CLOUDY    22  13  68 SW14      30.07F WCI   9
BURLINGTON CO  CLOUDY    17  13  84 SW8       30.13F
LIMON CO       CLOUDY     5   4  95 NW5       30.12F
$$

...UNOFFICIAL OBSERVATIONS...

CITY           SKY/WX    TMP DP  RH WIND       PRES   REMARKS
LENORA KS        N/A     23  32 100 W8          N/A
NORTON KS      CLEAR     16  10  79 SW8       30.15
SHARON SPRINGS   N/A     16  13  86 SW8         N/A
KIT CARSON CO    N/A     21  17  84 MISG        N/A
YUMA CO        FAIR      18  12  79 SW7       30.09F
$$




USA.gov is the U.S. government's official web portal to all federal, state and local government web resources and services.